FW7227 Weather Reports


time (UTC)temp
F
wind
direction
speed
knots
gust
knots
rain 1hr
in
rain 24hr
in
rain mn
in
humidity
%
barometer
mb
20260904214609 60 260 6.1 13.0 0.00 0.58 0.55 88 1012.1
20260904214057 60 317 7.0 13.0 0.00 0.58 0.55 88 1012.0
20260904213557 60 265 7.0 12.2 0.00 0.58 0.55 88 1011.9
20260904213101 60 256 7.0 13.0 0.00 0.58 0.55 89 1011.8
20260904212558 60 261 4.3 13.0 0.00 0.58 0.55 89 1011.7
20260904212056 60 299 6.1 13.0 0.00 0.58 0.55 89 1011.6
20260904211605 60 292 5.2 13.0 0.00 0.58 0.55 89 1011.7
20260904211057 60 267 6.1 14.8 0.00 0.58 0.55 89 1011.7
20260904210559 60 265 5.2 14.8 0.00 0.58 0.55 89 1011.6
20260904210104 60 259 7.8 14.8 0.00 0.58 0.55 89 1011.4
20260904205558 60 274 7.0 14.8 0.00 0.58 0.55 89 1011.5
20260904205057 60 277 6.1 14.8 0.00 0.58 0.55 90 1011.3
20260904204608 60 267 7.0 13.9 0.00 0.58 0.55 90 1011.2
20260904204101 60 239 7.8 13.9 0.00 0.58 0.55 90 1011.2
20260904203558 61 264 5.2 13.0 0.00 0.58 0.55 90 1011.3
20260904203102 61 265 6.1 13.0 0.00 0.58 0.55 90 1011.2
20260904202557 61 267 8.7 13.0 0.00 0.58 0.55 90 1011.1
20260904202100 61 273 6.1 14.8 0.00 0.58 0.55 90 1011.1
20260904201604 61 293 6.1 14.8 0.00 0.58 0.55 90 1011.1
20260904201057 61 265 6.1 15.6 0.00 0.58 0.55 90 1011.0
20260904200556 61 263 7.8 15.6 0.00 0.58 0.55 90 1011.0
20260904200116 61 263 7.0 15.6 0.00 0.58 0.55 90 1010.9
20260904195557 61 253 7.0 13.9 0.00 0.58 0.55 91 1010.9
20260904195058 61 271 7.0 14.8 0.00 0.58 0.55 91 1010.8
20260904194605 61 257 7.8 14.8 0.00 0.58 0.55 91 1010.7
20260904194057 61 284 7.8 13.9 0.00 0.58 0.55 91 1010.8
20260904193557 61 263 7.0 13.9 0.00 0.58 0.55 92 1010.8
20260904193101 61 244 6.1 13.9 0.00 0.58 0.55 92 1010.7
20260904192556 61 261 7.0 13.9 0.00 0.58 0.55 92 1010.8
20260904192056 61 268 6.1 12.2 0.00 0.58 0.55 92 1010.4
20260904191600 61 270 6.1 11.3 0.00 0.58 0.55 92 1010.5
20260904191057 61 277 5.2 12.2 0.00 0.58 0.55 93 1010.6
20260904190558 61 268 7.0 12.2 0.00 0.58 0.55 93 1010.6
20260904190108 61 275 7.0 13.9 0.00 0.58 0.55 93 1010.5
20260904185558 61 251 6.1 13.9 0.00 0.58 0.55 93 1010.4
20260904185057 61 295 6.1 14.8 0.00 0.58 0.55 93 1010.3
20260904184607 61 271 7.8 14.8 0.00 0.58 0.55 93 1010.2
20260904184058 61 267 7.8 14.8 0.00 0.58 0.55 93 1010.3
20260904183557 61 250 7.0 13.0 0.00 0.58 0.55 93 1010.3
20260904183101 61 252 7.8 14.8 0.00 0.58 0.55 93 1010.2
20260904182600 61 254 5.2 14.8 0.00 0.58 0.55 93 1010.3
20260904182056 61 258 8.7 13.9 0.00 0.58 0.55 93 1010.2
20260904181607 61 263 7.8 13.9 0.01 0.58 0.55 93 1009.9
20260904181057 62 269 7.0 14.8 0.02 0.58 0.55 94 1009.8
20260904180559 62 279 6.1 14.8 0.03 0.58 0.55 94 1009.9
20260904180113 62 262 8.7 14.8 0.03 0.58 0.55 94 1009.9
20260904175556 62 275 4.3 12.2 0.04 0.58 0.55 94 1009.9
20260904175057 62 277 7.0 12.2 0.04 0.58 0.55 94 1009.7
20260904174608 62 269 6.1 12.2 0.05 0.58 0.55 95 1009.5
20260904174057 62 266 7.0 13.9 0.06 0.58 0.55 95 1009.3
20260904173557 62 268 7.0 13.9 0.07 0.58 0.55 95 1009.3
20260904173105 62 279 4.3 9.6 0.07 0.58 0.55 95 1009.2
20260904172557 62 269 3.5 9.6 0.09 0.58 0.55 95 1009.1
20260904172058 62 263 4.3 7.8 0.09 0.57 0.55 95 1009.3
20260904171601 62 265 2.6 7.0 0.11 0.56 0.54 95 1009.3
20260904171056 62 273 2.6 7.0 0.14 0.55 0.53 95 1009.1
20260904170558 62 286 1.7 7.0 0.16 0.54 0.51 95 1009.2
20260904170110 62 261 1.7 7.0 0.18 0.54 0.51 94 1009.1
20260904165557 61 241 3.5 7.8 0.20 0.53 0.51 94 1008.8
20260904165057 61 265 3.5 11.3 0.22 0.53 0.51 94 1008.8
20260904164606 61 271 6.1 13.9 0.22 0.52 0.50 94 1008.8
20260904164057 61 273 5.2 13.9 0.22 0.51 0.49 94 1009.0
20260904163557 61 253 7.0 13.9 0.22 0.51 0.48 94 1009.0
20260904163109 61 290 7.0 15.6 0.23 0.50 0.48 94 1009.0
20260904162557 61 258 7.0 15.6 0.24 0.48 0.46 94 1008.9
20260904162057 61 273 7.8 15.6 0.24 0.48 0.45 93 1008.6
20260904161602 61 278 8.7 16.5 0.22 0.45 0.43 93 1008.7
20260904161056 61 249 9.6 19.1 0.18 0.41 0.39 93 1008.8
20260904160559 61 255 8.7 19.1 0.14 0.37 0.35 92 1009.0
20260904160106 61 256 8.7 17.4 0.11 0.35 0.33 92 1008.8
20260904155556 61 244 10.4 20.9 0.10 0.33 0.30 92 1008.7
20260904155058 61 273 12.2 20.9 0.08 0.31 0.29 92 1008.7
20260904154607 61 292 8.7 17.4 0.07 0.30 0.28 92 1008.5
20260904154058 61 284 8.7 17.4 0.07 0.29 0.27 92 1008.6
20260904153558 61 291 7.8 16.5 0.07 0.29 0.26 91 1008.8
20260904153106 61 250 7.8 14.8 0.07 0.26 0.24 90 1009.0
20260904152557 62 276 7.0 14.8 0.06 0.24 0.22 90 1008.9
20260904152059 62 281 8.7 16.5 0.06 0.23 0.21 90 1008.8
20260904151603 62 284 9.6 16.5 0.06 0.23 0.21 90 1008.7
20260904151056 62 267 7.8 14.8 0.06 0.23 0.21 90 1009.0
20260904150556 62 258 7.0 17.4 0.06 0.23 0.21 91 1009.0
20260904150105 62 279 7.0 20.9 0.06 0.23 0.21 90 1008.9
20260904145555 62 271 12.2 24.3 0.05 0.22 0.20 89 1009.3
20260904145057 62 280 12.2 24.3 0.05 0.22 0.20 89 1009.5
20260904144603 63 261 11.3 21.7 0.05 0.22 0.20 89 1009.6
20260904144101 63 281 6.1 21.7 0.04 0.22 0.19 90 1009.6
20260904143557 63 273 7.8 21.7 0.04 0.21 0.18 89 1009.8
20260904143100 63 270 11.3 21.7 0.03 0.19 0.17 89 1009.8
20260904142557 64 286 9.6 21.7 0.14 0.18 0.15 88 1009.5
20260904142057 64 315 7.8 17.4 0.14 0.17 0.14 89 1009.0
20260904141625 63 278 7.8 16.5 0.14 0.17 0.14 89 1009.1
20260904141056 63 248 7.0 16.5 0.14 0.17 0.14 89 1009.1
20260904140556 63 267 8.7 16.5 0.14 0.17 0.14 89 1008.9
20260904140106 63 234 7.8 13.0 0.14 0.17 0.14 89 1008.8
20260904135557 63 260 7.8 13.9 0.14 0.17 0.14 89 1008.5
20260904135058 64 238 9.6 17.4 0.14 0.17 0.14 89 1008.3
20260904134605 64 254 8.7 18.2 0.14 0.17 0.14 89 1008.4
20260904134057 65 269 9.6 20.9 0.14 0.17 0.14 86 1008.3
20260904133557 66 275 10.4 33.9 0.13 0.16 0.14 83 1008.3
20260904133100 70 306 15.6 33.9 0.12 0.15 0.13 72 1008.2
20260904132600 75 263 9.6 23.5 0.00 0.03 0.00 67 1007.4
20260904132057 76 275 14.8 26.9 0.00 0.03 0.00 66 1006.7
20260904131636 76 263 12.2 32.2 0.00 0.03 0.00 65 1006.6
20260904131057 77 299 14.8 33.0 0.00 0.03 0.00 64 1006.6
20260904130556 76 257 18.2 33.0 0.00 0.03 0.00 64 1006.7
20260904130105 76 248 14.8 27.8 0.00 0.03 0.00 64 1006.6
20260904125557 77 253 16.5 28.7 0.00 0.03 0.00 64 1006.6
20260904125057 77 252 10.4 29.5 0.00 0.03 0.00 64 1006.7
20260904124605 77 233 15.6 29.5 0.00 0.03 0.00 64 1006.7
20260904124057 76 247 14.8 28.7 0.00 0.03 0.00 65 1006.7
20260904123558 76 267 13.0 28.7 0.00 0.03 0.00 66 1006.9
20260904123110 76 276 14.8 27.8 0.00 0.03 0.00 66 1006.7
20260904122557 76 248 11.3 22.6 0.00 0.03 0.00 67 1007.0
20260904122101 76 290 13.9 24.3 0.00 0.03 0.00 66 1006.9
20260904121607 76 238 13.9 27.8 0.00 0.03 0.00 67 1007.0
20260904121057 75 268 10.4 27.8 0.00 0.03 0.00 69 1007.1
20260904120600 75 239 13.0 27.8 0.00 0.03 0.00 69 1007.2
20260904120114 75 246 13.0 26.1 0.00 0.03 0.00 69 1007.2
20260904115556 74 254 12.2 22.6 0.00 0.03 0.00 70 1007.2
20260904115058 74 273 12.2 23.5 0.00 0.03 0.00 70 1007.4
20260904114603 74 269 12.2 23.5 0.00 0.03 0.00 71 1007.5
20260904114057 73 235 12.2 20.0 0.00 0.03 0.00 71 1007.5
20260904113556 73 259 13.0 22.6 0.00 0.03 0.00 71 1007.7
20260904113110 73 257 11.3 22.6 0.00 0.03 0.00 72 1007.6
20260904112556 73 256 13.0 22.6 0.00 0.03 0.00 71 1007.6
20260904112057 73 257 9.6 23.5 0.00 0.03 0.00 71 1007.7
20260904111601 73 273 13.0 23.5 0.00 0.03 0.00 71 1007.8
20260904111058 73 263 10.4 20.9 0.00 0.03 0.00 71 1007.8
20260904110558 73 251 12.2 22.6 0.00 0.03 0.00 71 1007.9
20260904110116 73 221 11.3 22.6 0.00 0.03 0.00 71 1007.9
20260904105556 72 264 11.3 21.7 0.00 0.03 0.00 71 1007.8
20260904105056 72 244 10.4 26.1 0.00 0.03 0.00 71 1008.1
20260904104612 72 235 11.3 26.1 0.00 0.03 0.00 72 1008.0
20260904104058 72 241 10.4 24.3 0.00 0.03 0.00 72 1008.0
20260904103558 72 247 12.2 24.3 0.00 0.03 0.00 71 1008.0
20260904103108 72 280 10.4 19.1 0.00 0.03 0.00 72 1008.1
20260904102557 72 274 11.3 25.2 0.00 0.03 0.00 72 1008.1
20260904102057 72 238 12.2 25.2 0.00 0.03 0.00 72 1008.1
20260904101604 73 238 11.3 27.8 0.00 0.03 0.00 72 1008.2
20260904101056 73 223 12.2 27.8 0.00 0.03 0.00 72 1008.3
20260904100556 72 244 13.0 27.8 0.00 0.03 0.00 73 1008.1
20260904100111 72 261 12.2 21.7 0.00 0.03 0.00 73 1008.2
20260904095557 72 238 9.6 17.4 0.00 0.03 0.00 74 1008.4
20260904095056 72 275 8.7 18.2 0.00 0.03 0.00 74 1008.5
20260904094606 72 245 7.8 19.1 0.00 0.03 0.00 73 1008.7
20260904094057 72 262 8.7 21.7 0.00 0.03 0.00 74 1008.8
20260904093557 72 251 9.6 22.6 0.00 0.03 0.00 74 1008.9
20260904093109 72 227 12.2 22.6 0.00 0.03 0.00 74 1008.9
20260904092556 71 240 10.4 20.0 0.00 0.03 0.00 74 1009.0
20260904092100 71 255 7.0 16.5 0.00 0.03 0.00 74 1009.0
20260904091605 71 225 9.6 17.4 0.00 0.03 0.00 75 1008.9
20260904091056 71 267 7.8 25.2 0.00 0.03 0.00 75 1009.0
20260904090556 71 247 11.3 25.2 0.00 0.03 0.00 75 1009.1
20260904090106 71 213 7.8 16.5 0.00 0.03 0.00 75 1009.1
20260904085556 71 223 7.0 19.1 0.00 0.03 0.00 75 1009.2
20260904085056 71 250 8.7 20.0 0.00 0.03 0.00 75 1009.3
20260904084604 71 228 11.3 20.0 0.00 0.03 0.00 74 1009.4
20260904084055 71 230 9.6 14.8 0.00 0.03 0.00 74 1009.3
20260904083557 72 259 9.6 16.5 0.00 0.03 0.00 74 1009.5
20260904083102 72 267 7.0 16.5 0.00 0.03 0.00 75 1009.4
20260904082556 71 237 9.6 16.5 0.00 0.03 0.00 75 1009.4
20260904082057 71 245 8.7 16.5 0.00 0.03 0.00 76 1009.4
20260904081607 70 253 9.6 20.9 0.00 0.03 0.00 77 1009.6
20260904081056 70 237 10.4 20.9 0.00 0.03 0.00 78 1009.8
20260904080556 70 225 9.6 18.2 0.00 0.03 0.00 78 1009.9
20260904080112 70 239 8.7 15.6 0.00 0.03 0.00 79 1009.9
20260904075557 70 234 7.0 15.6 0.00 0.03 0.00 79 1010.0
20260904075057 70 254 7.8 17.4 0.00 0.03 0.00 79 1009.9
20260904074636 70 259 7.0 17.4 0.00 0.03 0.00 79 1009.9
20260904074058 70 277 7.0 17.4 0.00 0.03 0.00 79 1009.9
20260904073602 70 229 8.7 17.4 0.00 0.03 0.00 79 1009.8
20260904073101 70 201 7.8 15.6 0.00 0.03 0.00 80 1009.8
20260904072558 69 216 7.8 14.8 0.00 0.03 0.00 81 1009.8
20260904072058 69 247 9.6 14.8 0.00 0.03 0.00 81 1009.9
20260904071605 69 227 7.0 13.9 0.00 0.03 0.00 83 1010.0
20260904071057 68 217 7.0 13.9 0.00 0.03 0.00 83 1010.0
20260904070602 68 247 6.1 13.9 0.00 0.03 0.00 84 1010.2
20260904070108 68 249 7.0 13.0 0.00 0.03 0.00 84 1010.3
20260904065557 68 248 5.2 13.0 0.00 0.03 0.00 85 1010.3
20260904065058 68 235 5.2 15.6 0.00 0.03 0.00 85 1010.4
20260904064604 68 242 5.2 19.1 0.00 0.03 0.00 85 1010.3
20260904064100 67 261 10.4 19.1 0.00 0.03 0.00 84 1010.5
20260904063600 68 261 8.7 15.6 0.00 0.03 0.00 84 1010.6
20260904063111 67 212 7.8 14.8 0.00 0.03 0.00 84 1010.7
20260904062600 67 234 7.0 12.2 0.00 0.03 0.00 85 1010.5
20260904062057 67 195 5.2 11.3 0.00 0.03 0.00 85 1010.6
20260904061606 67 214 4.3 13.0 0.00 0.03 0.00 86 1010.7
20260904061057 66 231 6.1 13.0 0.00 0.03 0.00 87 1010.7
20260904060558 66 236 4.3 12.2 0.00 0.03 0.00 87 1010.9
20260904060113 66 213 2.6 12.2 0.00 0.03 0.00 87 1010.9
20260904055557 66 224 4.3 13.9 0.00 0.03 0.00 87 1011.0
20260904055057 65 234 6.1 13.9 0.00 0.03 0.00 88 1011.1
20260904054608 65 241 7.0 12.2 0.00 0.03 0.00 88 1011.1
20260904054058 65 229 5.2 11.3 0.00 0.02 0.00 89 1011.4
20260904053558 65 217 5.2 11.3 0.00 0.02 0.00 89 1011.4
20260904053101 64 201 6.1 11.3 0.00 0.02 0.00 89 1011.5
20260904052558 64 238 5.2 9.6 0.00 0.02 0.00 90 1011.5
20260904052059 64 268 3.5 8.7 0.00 0.02 0.00 90 1011.6
20260904051608 63 234 2.6 7.8 0.00 0.02 0.00 90 1011.6
20260904051057 63 230 3.5 7.8 0.00 0.02 0.00 90 1011.6
20260904050557 63 218 3.5 7.8 0.00 0.02 0.00 90 1011.6
20260904050108 63 220 2.6 7.0 0.00 0.02 0.00 90 1011.7
20260904045558 63 219 2.6 7.8 0.00 0.02 0.00 90 1011.6
20260904045059 63 225 2.6 7.8 0.00 0.02 0.00 90 1011.6
20260904044609 63 213 2.6 6.1 0.00 0.02 0.00 90 1011.7
20260904044101 63 220 2.6 7.8 0.00 0.02 0.00 90 1011.8
20260904043558 63 217 3.5 7.8 0.00 0.02 0.00 90 1011.9
20260904043100 63 219 2.6 6.1 0.00 0.02 0.00 89 1011.9
20260904042558 63 232 2.6 7.0 0.00 0.02 0.00 89 1012.0
20260904042057 63 232 2.6 7.0 0.00 0.02 0.00 89 1012.1
20260904041559 63 213 3.5 7.0 0.00 0.02 0.00 89 1012.2
20260904041057 63 225 3.5 8.7 0.00 0.02 0.00 89 1012.2
20260904040601 63 223 2.6 8.7 0.00 0.02 0.00 89 1012.2
20260904040110 63 223 2.6 7.0 0.00 0.02 0.00 89 1012.3
20260904035557 63 228 3.5 7.8 0.00 0.02 0.00 90 1012.5
20260904035058 63 203 4.3 7.8 0.00 0.02 0.00 90 1012.6
20260904034615 63 209 3.5 7.0 0.00 0.02 0.00 90 1012.6
20260904034057 63 222 2.6 7.0 0.00 0.02 0.00 90 1012.7
20260904033558 63 217 2.6 7.0 0.00 0.02 0.00 90 1012.8
20260904033100 62 225 2.6 7.8 0.00 0.02 0.00 90 1012.9
20260904032557 62 227 3.5 7.8 0.00 0.02 0.00 90 1013.0
20260904032057 62 221 2.6 7.0 0.00 0.02 0.00 90 1013.1
20260904031606 62 244 2.6 7.0 0.00 0.02 0.00 90 1013.1
20260904031057 62 221 3.5 7.0 0.00 0.02 0.00 90 1013.2
20260904030601 62 225 3.5 7.8 0.00 0.02 0.00 90 1013.2
20260904030106 62 225 2.6 7.8 0.00 0.02 0.00 91 1013.2
20260904025559 62 209 4.3 7.8 0.00 0.02 0.00 91 1013.3
20260904025057 62 221 2.6 7.0 0.00 0.02 0.00 90 1013.5
20260904024602 61 240 1.7 6.1 0.00 0.02 0.00 90 1013.5
20260904024058 61 215 2.6 6.1 0.00 0.02 0.00 90 1013.5
20260904023557 61 217 2.6 6.1 0.00 0.02 0.00 90 1013.6
20260904023107 61 194 1.7 6.1 0.00 0.02 0.00 90 1013.5
20260904022558 61 215 2.6 6.1 0.00 0.02 0.00 90 1013.7
20260904022058 61 214 2.6 4.3 0.00 0.02 0.00 90 1013.7
20260904021608 61 221 2.6 6.1 0.00 0.02 0.00 90 1013.9
20260904021057 61 202 2.6 6.1 0.00 0.02 0.00 90 1013.8
20260904020557 61 217 0.9 4.3 0.00 0.02 0.00 90 1013.9
20260904020107 61 214 1.7 4.3 0.00 0.02 0.00 89 1013.8
20260904015559 61 215 0.9 3.5 0.00 0.02 0.00 89 1013.9
20260904015057 61 216 1.7 4.3 0.00 0.02 0.00 89 1014.1
20260904014604 61 219 1.7 4.3 0.00 0.02 0.00 89 1014.0
20260904014057 61 218 0.9 4.3 0.00 0.02 0.00 89 1014.0
20260904013556 61 221 1.7 4.3 0.00 0.02 0.00 89 1014.0
20260904013105 62 225 0.9 5.2 0.00 0.02 0.00 89 1014.0
20260904012558 62 227 1.7 5.2 0.00 0.02 0.00 89 1014.1
20260904012059 62 228 1.7 6.1 0.00 0.02 0.00 89 1014.1
20260904011559 62 226 1.7 6.1 0.00 0.02 0.00 89 1014.1
20260904011056 62 241 2.6 7.0 0.00 0.02 0.00 89 1014.2
20260904010557 61 240 2.6 7.0 0.00 0.02 0.00 89 1014.4
20260904010106 61 252 2.6 6.1 0.00 0.02 0.00 89 1014.5
20260904005558 62 236 2.6 7.0 0.00 0.02 0.00 89 1014.5
20260904005100 62 240 2.6 7.0 0.00 0.02 0.00 89 1014.5
20260904004610 62 240 2.6 7.0 0.00 0.02 0.00 89 1014.5
20260904004057 62 234 1.7 4.3 0.00 0.02 0.00 89 1014.5
20260904003557 62 234 1.7 4.3 0.00 0.02 0.00 89 1014.6
20260904003100 62 232 1.7 5.2 0.00 0.02 0.00 89 1014.7
20260904002557 62 232 2.6 5.2 0.00 0.02 0.00 89 1014.7
20260904002100 62 227 2.6 5.2 0.00 0.02 0.00 89 1014.7
20260904001605 62 227 2.6 6.1 0.00 0.02 0.00 89 1014.7
20260904001057 62 226 2.6 6.1 0.00 0.02 0.00 89 1014.8
20260904000558 62 231 3.5 7.0 0.00 0.02 0.00 89 1014.9
20260904000136 62 223 2.6 7.8 0.00 0.02 0.00 89 1014.9
20260903235559 62 232 3.5 7.8 0.00 0.02 0.00 89 1015.0
20260903235101 62 236 2.6 6.1 0.00 0.02 0.00 89 1015.1
20260903234604 62 232 2.6 6.1 0.00 0.02 0.00 89 1015.1
20260903234057 62 242 2.6 6.1 0.00 0.02 0.00 89 1015.1
20260903233557 62 245 2.6 6.1 0.00 0.02 0.00 90 1015.1
20260903233112 62 244 2.6 5.2 0.00 0.02 0.00 90 1015.2
20260903232556 62 227 2.6 5.2 0.00 0.02 0.00 90 1015.0
20260903232057 62 227 1.7 7.0 0.00 0.02 0.00 90 1015.1
20260903231610 62 227 2.6 7.0 0.00 0.02 0.00 90 1015.1
20260903231057 63 220 2.6 7.0 0.00 0.02 0.00 91 1015.1
20260903230558 63 238 2.6 6.1 0.00 0.02 0.00 91 1015.2
20260903230114 63 242 2.6 6.1 0.00 0.02 0.00 91 1015.5
20260903225557 63 238 2.6 6.1 0.00 0.02 0.00 91 1015.4
20260903225057 63 236 1.7 4.3 0.00 0.02 0.00 91 1015.4
20260903224610 63 244 1.7 4.3 0.00 0.02 0.00 91 1015.3
20260903224057 63 250 1.7 2.6 0.00 0.02 0.00 92 1015.3
20260903223558 63 250 0.9 3.5 0.00 0.02 0.00 92 1015.4
20260903223059 63 250 1.7 3.5 0.00 0.02 0.00 91 1015.5
20260903222557 64 250 1.7 3.5 0.00 0.02 0.00 91 1015.5
20260903222059 64 251 1.7 3.5 0.00 0.02 0.00 92 1015.5
20260903221605 63 252 1.7 3.5 0.00 0.02 0.00 92 1015.5
20260903221056 64 254 0.0 1.7 0.00 0.02 0.00 92 1015.6
20260903220556 64 258 0.9 3.5 0.02 0.02 0.00 92 1015.7
20260903220121 64 0 0.9 3.5 0.02 0.02 0.00 91 1015.6
20260903215559 64 258 1.7 3.5 0.02 0.02 0.02 91 1015.6
20260903215058 64 267 1.7 6.1 0.02 0.02 0.02 90 1015.5